Showing default

KANYINI, 60556

Orbit data source: Space-Track

KANYINI, 60556 is an Australian payload satellite in SSO that was launched on Fri, 16 Aug 2024 UTC via an FALCON 9 launch vehicle from the Air Force Western Test Range (AFWTR). Payload-class satellites include a variety of spacecraft equipped with specific instruments for various scientific and technological missions. These include communications satellites like Starlink; space stations such as the ISS; scientific satellites like the Hubble; Earth observation satellites from companies like Planet Labs, Umbra, and HawkEye 360; GPS; miniature CubeSats for education and research; and military/defense satellites.

Loading next visibility...
Identifier
60556, 2024-149CS
Orbit
SSO
Country
Flag of AUAU / AUS
Related business
Manufacturer
INOVOR
Mission
Operational Amateur Communications
Bus & Motor
CUBESAT 6U, Unknown motor
Mass
12 kg wet, 12 kg dry
Launch date (UTC)
2024-08-16 (1 year ago)
Launch vehicle
FALCON 9
Launch site
Air Force Western Test Range (AFWTR)
Object type
Payload
Rocket body
Debris
Shape & HBR
Box + 2 Pan, 0.2 m
Radar Cross Section
0.092 m², Small (<0.1 m²)

Expand to show TLE details & history
Last TLE update: 5 hours ago

TLE from 5 hours ago
0 KANYINI
1 60556U 24149CS  25312.19727078  .00035526  00000-0  98650-3 0  9998
2 60556  97.3956  30.5132 0000966 349.1136  11.0087 15.36808646 68395
Epoch: 2025-11-08T04:44Z
TLE epoch observation values (Epoch: 2025-11-08T04:44:04.195Z)
Latitude
-0.00003°
Longitude
-88.13461°
Altitude
458.019 km
Speed
7.638 km/s
True Right ascension
02h 02m 03s
True Declination
0° 00' 00"
Sunlit
Object was in full shadow at epoch
Visualization orbit readout
Latitude
Unknown
Longitude
Unknown
Altitude
Unknown
Speed
Unknown
Apparent Right ascension
Unknown
Apparent Declination
Unknown
Sunlit
N/A
Visualization observer readout
Local Sidereal Time
05:31:07
Azimuth
Unknown
Elevation
Unknown
Doppler factor
Unknown
Orbital elements
Apogee altitude
453.156 km
Perigee altitude
451.837 km
Semi-major axis
6,830.634 km
Eccentricity
0.0001
Inclination
97.3956°
RAAN
30.5132°
Arg. of periapsis
349.1136°
True anomaly
11.01081°
Mean anomaly
11.0087°
Eccentric anomaly
11.00976°
Mean motion
3.8446 °/min
Orbital period
93.64 mins
BSTAR
0.0009865
Loading maneuver chart data...
Computing Atmospheric mass density...
Loading historical data...
Loading historical data...
Loading historical data...
Loading historical data...
Loading historical data...
Loading historical data...
Loading historical data...

Documentation

Showing up to 5 results
|